WD4LSS Weather Reports


time (UTC)temp
C
wind
direction
speed
KPH
gust
KPH
rain 1hr
cm
rain 24hr
cm
rain mn
cm
humidity
%
barometer
mb
20260504182015 25 270 3.2 11.3 0.00 0.00 0.00 40 1015.6
20260504181536 25 315 1.6 8.0 0.00 0.00 0.00 41 1015.6
20260504181015 25 315 3.2 9.7 0.00 0.00 0.00 42 1015.5
20260504180515 24 270 1.6 11.3 0.00 0.00 0.00 42 1015.5
20260504180015 24 315 3.2 6.4 0.00 0.00 0.00 43 1015.5
20260504175515 24 315 3.2 8.0 0.00 0.00 0.00 42 1015.7
20260504175015 24 248 3.2 9.7 0.00 0.00 0.00 42 1015.8
20260504174515 24 315 3.2 9.7 0.00 0.00 0.00 42 1015.9
20260504174015 23 0 3.2 8.0 0.00 0.00 0.00 46 1015.7
20260504173515 23 315 4.8 14.5 0.00 0.00 0.00 43 1015.8
20260504173015 24 248 3.2 9.7 0.00 0.00 0.00 41 1015.8
20260504172515 23 270 3.2 12.9 0.00 0.00 0.00 42 1015.9
20260504172037 23 270 3.2 9.7 0.00 0.00 0.00 42 1016.0
20260504171517 23 225 1.6 11.3 0.00 0.00 0.00 44 1016.0
20260504171017 23 180 1.6 4.8 0.00 0.00 0.00 42 1016.1
20260504170517 23 270 1.6 4.8 0.00 0.00 0.00 44 1016.3
20260504151017 20 248 1.6 6.4 0.00 0.00 0.00 49 1017.9
20260504150517 20 315 4.8 12.9 0.00 0.00 0.00 50 1017.8
20260504141017 16 0.0 3.2 0.00 0.00 0.00 68 1017.5
20260504140517 15 270 1.6 4.8 0.00 0.00 0.00 68 1017.6
20260504130516 10 0.0 3.2 0.00 0.00 0.00 82 1017.3
20260504110536 3 0.0 0.0 0.00 0.00 0.00 92 1017.2
20260504100536 3 0.0 1.6 0.00 0.00 0.00 91 1017.3
20260504081516 5 0.0 0.0 0.00 0.00 0.00 89 1017.1
20260504081016 5 0.0 0.0 0.00 0.00 0.00 89 1017.1
20260504080516 5 0.0 0.0 0.00 0.00 0.00 89 1017.2
20260504050536 6 0.0 0.0 0.00 0.00 0.00 81 1017.3
20260504050015 6 0.0 0.0 0.00 0.00 0.00 81 1017.2
20260504045516 7 0.0 0.0 0.00 0.00 0.00 80 1017.2
20260504045016 7 0.0 0.0 0.00 0.00 0.00 80 1017.3
20260504044516 7 0.0 0.0 0.00 0.00 0.00 80 1017.2
20260504044016 7 0.0 0.0 0.00 0.00 0.00 80 1017.2
20260504043536 7 0.0 0.0 0.00 0.00 0.00 80 1017.1
20260504043016 7 0.0 0.0 0.00 0.00 0.00 80 1017.0
20260504042516 7 0.0 0.0 0.00 0.00 0.00 80 1017.0
20260504042016 7 0.0 0.0 0.00 0.00 0.00 80 1017.0
20260504041516 7 0.0 0.0 0.00 0.00 0.00 79 1017.0
20260504041016 7 0.0 0.0 0.00 0.00 0.00 79 1017.0
20260504040515 7 0.0 0.0 0.00 0.00 0.00 78 1017.1
20260504040016 7 0.0 0.0 0.00 0.00 0.00 78 1017.0
20260504035517 7 0.0 0.0 0.00 0.00 0.00 78 1017.0
20260504035017 7 0.0 0.0 0.00 0.00 0.00 78 1017.0
20260504034517 7 0.0 0.0 0.00 0.00 0.00 77 1017.1
20260504034017 7 0.0 0.0 0.00 0.00 0.00 77 1017.1
20260504033516 7 0.0 0.0 0.00 0.00 0.00 76 1017.1
20260504033037 7 0.0 0.0 0.00 0.00 0.00 75 1017.1
20260504032517 8 0.0 0.0 0.00 0.00 0.00 75 1017.2
20260504032037 8 0.0 0.0 0.00 0.00 0.00 74 1017.2
20260504031517 8 0.0 0.0 0.00 0.00 0.00 74 1017.2
20260504031037 8 0.0 0.0 0.00 0.00 0.00 73 1017.2
20260504030517 8 0.0 0.0 0.00 0.00 0.00 73 1017.3
20260504030017 8 0.0 0.0 0.00 0.00 0.00 73 1017.3
20260504025537 8 0.0 0.0 0.00 0.00 0.00 73 1017.3
20260504025017 8 0.0 0.0 0.00 0.00 0.00 72 1017.3
20260504024536 8 0.0 0.0 0.00 0.00 0.00 71 1017.2
20260504024036 8 0.0 0.0 0.00 0.00 0.00 71 1017.1
20260504023516 9 0.0 0.0 0.00 0.00 0.00 70 1017.1
20260504023016 9 0.0 0.0 0.00 0.00 0.00 69 1017.1
20260504022517 9 0.0 0.0 0.00 0.00 0.00 69 1017.0
20260504022017 9 0.0 0.0 0.00 0.00 0.00 69 1017.0
20260504021516 9 0.0 0.0 0.00 0.00 0.00 68 1016.8
20260504021017 10 0.0 0.0 0.00 0.00 0.00 68 1016.8
20260504020516 10 0.0 0.0 0.00 0.00 0.00 67 1016.8
20260504020016 10 0.0 0.0 0.00 0.00 0.00 66 1016.6
20260504015516 10 0.0 0.0 0.00 0.00 0.00 66 1016.5
20260504015017 10 0.0 0.0 0.00 0.00 0.00 65 1016.5
20260504014516 10 0.0 0.0 0.00 0.00 0.00 65 1016.5
20260504014036 10 0.0 0.0 0.00 0.00 0.00 64 1016.4
20260504013516 10 0.0 0.0 0.00 0.00 0.00 64 1016.3
20260504013017 11 0.0 0.0 0.00 0.00 0.00 63 1016.4
20260504012516 11 0.0 0.0 0.00 0.00 0.00 63 1016.4
20260504012016 11 0.0 0.0 0.00 0.00 0.00 63 1016.4
20260504011536 11 0.0 0.0 0.00 0.00 0.00 61 1016.3
20260504011036 11 0.0 0.0 0.00 0.00 0.00 60 1016.3
20260504010517 12 0.0 0.0 0.00 0.00 0.00 59 1016.2
20260504010017 12 0.0 0.0 0.00 0.00 0.00 58 1016.2
20260504005516 12 0.0 0.0 0.00 0.00 0.00 58 1016.2
20260504005016 12 0.0 0.0 0.00 0.00 0.00 57 1016.1
20260504004516 12 0.0 0.0 0.00 0.00 0.00 56 1016.0
20260504004016 13 0.0 0.0 0.00 0.00 0.00 55 1016.1
20260504003516 13 0.0 0.0 0.00 0.00 0.00 54 1015.9
20260504003016 13 0.0 0.0 0.00 0.00 0.00 53 1015.8
20260504002516 14 0.0 0.0 0.00 0.00 0.00 53 1015.8
20260504002016 14 0.0 0.0 0.00 0.00 0.00 51 1015.7
20260504001516 15 0.0 0.0 0.00 0.00 0.00 49 1015.8
20260504001016 15 0.0 0.0 0.00 0.00 0.00 50 1015.7
20260504000516 15 0.0 0.0 0.00 0.00 0.00 49 1015.6
20260504000016 16 0.0 0.0 0.00 0.00 0.00 47 1015.6
20260503235536 16 0.0 0.0 0.00 0.00 0.00 47 1015.6
20260503235016 16 0.0 0.0 0.00 0.00 0.00 46 1015.5
20260503234516 17 0.0 0.0 0.00 0.00 0.00 45 1015.6
20260503234016 17 0.0 0.0 0.00 0.00 0.00 43 1015.7
20260503233516 17 0.0 0.0 0.00 0.00 0.00 43 1015.6
20260503233016 17 0.0 0.0 0.00 0.00 0.00 40 1015.7
20260503232516 17 0.0 1.6 0.00 0.00 0.00 39 1015.8
20260503232036 17 0.0 1.6 0.00 0.00 0.00 38 1015.7
20260503231516 18 0.0 3.2 0.00 0.00 0.00 36 1015.7
20260503231016 18 0.0 1.6 0.00 0.00 0.00 37 1015.6
20260503230516 18 225 1.6 3.2 0.00 0.00 0.00 35 1015.7
20260503230016 18 0.0 6.4 0.00 0.00 0.00 36 1015.8
20260503225516 18 0.0 3.2 0.00 0.00 0.00 36 1015.7
20260503225016 19 248 1.6 6.4 0.00 0.00 0.00 35 1015.9
20260503224516 19 270 1.6 4.8 0.00 0.00 0.00 35 1015.8
20260503224016 19 0.0 4.8 0.00 0.00 0.00 36 1016.0
20260503223516 19 270 1.6 6.4 0.00 0.00 0.00 35 1016.0
20260503223016 19 315 1.6 8.0 0.00 0.00 0.00 35 1016.0
20260503222536 19 293 3.2 11.3 0.00 0.00 0.00 34 1016.0
20260503222016 19 293 1.6 12.9 0.00 0.00 0.00 35 1016.0
20260503221516 19 293 1.6 4.8 0.00 0.00 0.00 34 1016.0
20260503221016 19 293 3.2 8.0 0.00 0.00 0.00 34 1016.0
20260503220516 19 293 1.6 6.4 0.00 0.00 0.00 34 1016.2
20260503220016 20 293 3.2 11.3 0.00 0.00 0.00 33 1016.4
20260503215516 20 315 3.2 11.3 0.00 0.00 0.00 33 1016.3
20260503215016 20 270 1.6 12.9 0.00 0.00 0.00 35 1016.3
20260503214516 20 315 1.6 8.0 0.00 0.00 0.00 32 1016.5
20260503214016 20 270 1.6 6.4 0.00 0.00 0.00 32 1016.4
20260503213536 20 270 3.2 12.9 0.00 0.00 0.00 33 1016.6
20260503213016 20 315 1.6 9.7 0.00 0.00 0.00 34 1016.6
20260503212516 20 315 3.2 11.3 0.00 0.00 0.00 33 1016.7
20260503212016 20 270 3.2 9.7 0.00 0.00 0.00 31 1016.7
20260503211516 20 315 4.8 11.3 0.00 0.00 0.00 30 1016.8
20260503211016 20 293 3.2 11.3 0.00 0.00 0.00 32 1016.8
20260503210516 20 113 3.2 17.7 0.00 0.00 0.00 31 1016.8
20260503210036 20 293 1.6 6.4 0.00 0.00 0.00 31 1016.7
20260503205516 20 293 4.8 11.3 0.00 0.00 0.00 32 1016.9
20260503205036 20 248 4.8 14.5 0.00 0.00 0.00 32 1016.9
20260503204516 20 270 1.6 9.7 0.00 0.00 0.00 32 1017.0
20260503204036 20 293 1.6 6.4 0.00 0.00 0.00 33 1016.9
20260503203515 20 315 1.6 4.8 0.00 0.00 0.00 32 1017.0
20260503203016 20 315 1.6 9.7 0.00 0.00 0.00 31 1017.1
20260503202516 20 293 3.2 12.9 0.00 0.00 0.00 33 1017.1
20260503202036 20 315 6.4 12.9 0.00 0.00 0.00 30 1017.2
20260503201536 20 315 3.2 12.9 0.00 0.00 0.00 32 1017.3
20260503201016 20 293 1.6 4.8 0.00 0.00 0.00 29 1017.4
20260503200516 20 270 3.2 9.7 0.00 0.00 0.00 32 1017.4
20260503200016 20 270 3.2 9.7 0.00 0.00 0.00 31 1017.5
20260503195516 19 270 4.8 12.9 0.00 0.00 0.00 31 1017.7
20260503195016 18 248 4.8 14.5 0.00 0.00 0.00 32 1017.7
20260503194516 18 315 4.8 11.3 0.00 0.00 0.00 32 1017.7
20260503194016 18 315 3.2 11.3 0.00 0.00 0.00 32 1017.8
20260503193535 18 293 6.4 12.9 0.00 0.00 0.00 33 1017.8
20260503193036 18 270 4.8 14.5 0.00 0.00 0.00 32 1017.8
20260503192516 18 270 1.6 11.3 0.00 0.00 0.00 34 1017.9
20260503192016 18 293 3.2 8.0 0.00 0.00 0.00 31 1017.9
20260503191515 18 338 4.8 11.3 0.00 0.00 0.00 33 1018.2
20260503191016 18 248 3.2 12.9 0.00 0.00 0.00 36 1018.2
20260503190536 18 315 3.2 6.4 0.00 0.00 0.00 31 1018.2
20260503190016 18 0 3.2 9.7 0.00 0.00 0.00 35 1018.4
20260503185515 18 315 3.2 6.4 0.00 0.00 0.00 36 1018.5
20260503185035 17 225 1.6 4.8 0.00 0.00 0.00 33 1018.7
20260503184515 18 293 4.8 12.9 0.00 0.00 0.00 36 1018.7
20260503184016 18 293 3.2 9.7 0.00 0.00 0.00 35 1018.7
20260503183515 17 0 4.8 12.9 0.00 0.00 0.00 35 1018.8
20260503183036 17 315 3.2 14.5 0.00 0.00 0.00 38 1018.8
20260503182515 17 315 3.2 9.7 0.00 0.00 0.00 36 1018.9